Flag for U.S.A. Weather past 2 weeks in Barrow, Alaska, U.S.A.

Now
36 °F

Drizzle. Fog.


Feels Like: 26 °F
Forecast: 36 / 38 °F
Wind: 16 mph from East

Location: Post Rogers Memorial Airport

Current Time: Sep 15, 2014 at 5:37:15 PM

Latest Report: Sep 15, 2014 at 4:53 PM


Visibility: 4 mi

Pressure: 29.69 "Hg

Humidity: 100%

Dew point: 36 °F

Location of BarrowLocation

Historic Weather in Barrow — Graph

°F

Barrow temperature yesterday

Maximum temperature yesterday: 36 °F (at 12:53 PM)
Minimum temperature yesterday: 35 °F (at 12:53 AM)
Average temperature yesterday: 36 °F

Past Weeks' High & Low Weather Summary

 TemperatureHumidityPressure
High50 °F (Sep 7, 3:53 PM)100% (Aug 31, 4:53 PM)30.28 "Hg (Aug 31, 4:53 PM)
Low24 °F (Sep 6, 3:53 AM)39% (Sep 7, 4:53 PM)29.34 "Hg (Sep 1, 6:53 AM)
Average35 °F87%29.94 "Hg
* Reported Aug 31 3:53 PM — Sep 15 3:53 PM, Barrow, Weather by CustomWeather, © 2014

Note: Actual official high and low records may vary slightly from our data, if they occured in-between our weather recording intervals... More about our weather records

Advertising

Barrow weather history for previous 24 hours

 ConditionsComfort  
Time TempWeatherWind HumidityBarometerVisibility
3:53 PM
Sep 15
37 °FDrizzle. Fog.18 mph96%29.69 "Hg5 mi
2:53 PM37 °FDrizzle. Fog.14 mph96%29.70 "Hg6 mi
1:53 PM37 °FDrizzle. Fog.17 mph96%29.70 "Hg5 mi
12:53 PM37 °FDrizzle. Low clouds.17 mph96%29.71 "Hg8 mi
11:53 AM36 °FDrizzle. Fog.17 mph100%29.71 "Hg6 mi
11:01 AM36 °FDrizzle. Fog.17 mph100%29.71 "Hg3 mi
9:53 AM36 °FDrizzle. Fog.14 mph100%29.72 "Hg2 mi
8:53 AM36 °FDrizzle. Fog.17 mph100%29.72 "Hg1 mi
7:53 AM36 °FDrizzle. Fog.16 mph100%29.72 "Hg1 mi
6:53 AM36 °FLight rain. Fog.20 mph100%29.72 "Hg2 mi
5:53 AM36 °FLight rain. Fog.21 mph100%29.74 "Hg2 mi
4:53 AM36 °FLight rain. Fog.16 mph100%29.75 "Hg3 mi
3:53 AM36 °FDrizzle. Fog.17 mph100%29.76 "Hg3 mi
2:53 AM36 °FLight rain. Fog.21 mph100%29.75 "Hg5 mi
1:53 AM36 °FLight rain. Fog.22 mph100%29.77 "Hg4 mi
12:53 AM36 °FLight rain. Fog.18 mph100%29.78 "Hg5 mi
11:53 PM
Sep 14
36 °FLight rain. Fog.20 mph97%29.78 "Hg6 mi
10:53 PM36 °FLight rain. Low clouds.18 mph97%29.78 "Hg7 mi
9:53 PM36 °FLight rain. Low clouds.17 mph97%29.78 "Hg7 mi
8:53 PM36 °FLight rain. Low clouds.16 mph97%29.79 "Hg8 mi
7:53 PM36 °FLight rain. Fog.18 mph97%29.79 "Hg6 mi
6:53 PM36 °FLight rain. Fog.22 mph97%29.79 "Hg6 mi
5:53 PM36 °FLight rain. Fog.22 mph97%29.80 "Hg5 mi
Weather by CustomWeather, © 2014

See weather overviewHow to use our weather pages